This demonstration page uses our WeatherBlox Daily Observations layout. Learn more.

Left ArrowRight Arrow

31.31129, -92.44514

Hourly Observations for July 28, 2022

Temp ( °F °C ) Dew Point ( °F °C ) Humidity (%) Winds ( mph kmh ) Pressure ( in mb ) Visibility ( mi km ) Precip ( " mm )
12:53 am 00:53 Clear 78 25.6 75 23.9 90 90 SSE 7 11 30.00 1016 10 16 0.00 0.00
1:53 am 01:53 Clear 77 25 74 23.3 90 90 S 3 6 29.99 1016 10 16 0.00 0.00
2:53 am 02:53 Clear 77 25 74 23.3 90 90 S 3 6 30.00 1016 10 16 0.00 0.00
3:53 am 03:53 Clear 76 24.4 73 22.8 91 91 SSE 6 9 29.99 1016 10 16 0.00 0.00
4:53 am 04:53 Clear 76 24.4 73 22.8 91 91 SSE 3 6 29.98 1015 10 16 0.00 0.00
5:53 am 05:53 Clear 76 24.4 73 22.8 91 91 Calm 30.01 1016 10 16 0.00 0.00
6:53 am 06:53 Sunny 76 24.4 73 22.8 91 91 SSE 5 7 30.03 1017 9 14 0.00 0.00
7:53 am 07:53 Sunny 78 25.6 74 23.3 87 87 S 5 7 30.04 1017 9 14 0.00 0.00
8:53 am 08:53 Sunny 83 28.3 76 24.4 79 79 VRB 3 6 30.04 1017 10 16 0.00 0.00
9:53 am 09:53 Sunny 87 30.6 76 24.4 70 70 VRB 3 6 30.04 1017 10 16 0.00 0.00
10:53 am 10:53 Partly Cloudy 90 32.2 75 23.9 62 62 SW 8 13 30.05 1018 10 16 0.00 0.00
11:53 am 11:53 Sunny 91 32.8 74 23.3 57 57 SW 7 11 30.04 1017 10 16 0.00 0.00
12:22 pm 12:22 Sunny with Thunderstorms 92 33.3 73 22.8 54 54 Calm 30.02 1017 10 16 0.00 0.00
12:43 pm 12:43 Partly Cloudy with Nearby Thunderstorms 87 30.6 72 22.2 61 61 SW 7 11 30.02 1017 10 16 0.00 0.00
12:53 pm 12:53 Mostly Cloudy with Rain 85 29.4 75 23.9 72 72 S 8 13 30.03 1017 5 8 0.01 0.25
1:14 pm 13:14 Mostly Cloudy with Nearby Thunderstorms 90 32.2 75 23.9 62 62 VRB 3 6 30.01 1016 10 16 0.00 0.00
1:42 pm 13:42 Sunny 89 31.7 75 23.9 63 63 SSE 8 13 29.99 1016 10 16 0.00 0.00
1:53 pm 13:53 Sunny 90 32.2 76 24.4 63 63 S 6 9 30.01 1016 10 16 0.00 0.00
2:05 pm 14:05 Sunny with Nearby Thunderstorms 90 32.2 76 24.4 63 63 S 7 11 30.00 1016 10 16 0.00 0.00
2:20 pm 14:20 Sunny 89 31.7 74 23.3 61 61 S 8 13 29.99 1016 10 16 0.00 0.00
2:53 pm 14:53 Sunny 90 32.2 73 22.8 58 58 S 14 22 30.01 1016 10 16 0.00 0.00
3:53 pm 15:53 Mostly Sunny 83 28.3 73 22.8 72 72 W 5 7 30.00 1016 10 16 0.00 0.00
4:53 pm 16:53 Sunny 88 31.1 73 22.8 61 61 VRB 3 6 29.98 1015 10 16 0.00 0.00
5:53 pm 17:53 Sunny 91 32.8 74 23.3 57 57 SSW 8 13 29.97 1015 10 16 0.00 0.00
6:53 pm 18:53 Sunny 88 31.1 75 23.9 66 66 S 6 9 29.97 1015 10 16 0.00 0.00
7:53 pm 19:53 Sunny 86 30 74 23.3 67 67 S 6 9 29.98 1015 10 16 0.00 0.00
8:53 pm 20:53 Clear 83 28.3 75 23.9 77 77 S 7 11 29.98 1015 10 16 0.00 0.00
9:53 pm 21:53 Clear 81 27.2 75 23.9 82 82 SSE 9 15 29.99 1016 10 16 0.00 0.00
10:53 pm 22:53 Clear 80 26.7 74 23.3 82 82 Calm 29.99 1016 10 16 0.00 0.00
11:53 pm 23:53 Clear 80 26.7 74 23.3 82 82 ESE 5 7 30.00 1016 10 16 0.00 0.00

Powered by AerisWeather